Weather in Mikhaylovka

Russia / Lipetsk Oblast     52°57′49″N   38°11′27″E
temp.,
°C
wind,
m/s
gust,
m/s
humid.,
%
clouds,
%
prec.,
mm/h
press.,
hPa
HPBL,
m
8 march, mon
mon800:00−5w6157899 1.1 1001494
03:00−6wsw5138673 1.1 1002295
06:00−6wsw5148837 0.1 1001367
09:00−6wsw6139256 0.1 1002627
12:00−4w7118697 0.1 10041031
15:00−4wnw698598 0.2 10051114
18:00−7wnw339098 0.1 100734
21:00−11nnw228878 0.1 100921
9 march, tue
tue900:00−13nw229121 0.0 101020
03:00−14nw239422 0.0 101123
06:00−13nnw349699 0.0 101285
09:00−13n479597 0.1 1014249
12:00−11nnw469170 0.0 1015414
15:00−11nnw478884 0.0 1017613
18:00−14nw349293 0.0 101848
21:00−15nw349678 0.0 102173
10 march, wed
wed1000:00−18nnw349733 0.0 102273
03:00−19nw339964 0.1 102438
06:00−22nw349973 0.0 102662
09:00−21nnw369641 0.0 1027235
12:00−18nnw359119 0.0 1028353
15:00−17nnw358931 0.0 1028435
18:00−20n239550 0.0 102920
21:00−23n239525 0.0 103120
11 march, thu
thu1100:00−23n23920 0.0 103220
03:00−24nw22900 0.0 103320
06:00−24wnw23890 0.0 103321
09:00−20nw34890 0.0 1034118
12:00−15nw24840 0.0 1034251
15:00−13wnw23856 0.0 1033343
18:00−16w22910 0.0 103320
21:00−19wsw22910 0.0 103320
12 march, fri
fri1200:00−19ssw22890 0.0 103320
03:00−20s34890 0.0 103330
06:00−20s45870 0.0 103274
09:00−16s612866 0.0 1030278
12:00−10s81476100 0.0 1029547
15:00−8s81476100 0.0 1027614
18:00−8s81774100 0.0 1024659
21:00−8s91871100 0.0 1023763